[[{"header":{"parameterUnit":"m.s-1","parameterCategory":1,"la1":30.2991,"la2":30.254,"lo1":-89.0895,"lo2":-89.0444,"dy":0.0017,"dx":0.0017,"nx":28,"ny":28,"refTime":"2024-06-17T21:00:00:Z","depth":0,"parameterNumber":2,"parameterNumberName":"U-component_of_WINDS"},"data":[0,0,0,0,0,0,0,0,0,0,0,0,0,0,0,0,0,0,0,0,0,0,0,0,0,0,0,0,0,0,0,0,0,0,0,0,0,0,0,0,0,0,0,0,0,0,0,0,0,0,0,0,0,0,0,0,0,0,-4.0478,-4.0479,0,-4.0664,-4.0667,-4.0669,-4.0669,-4.0666,-4.0664,-4.0662,-4.0859,-4.0867,-4.0874,0,0,0,0,0,0,0,0,0,0,0,0,0,-4.0128,-4.0134,-4.0477,-4.048,-4.0482,-4.0664,-4.0667,-4.0669,-4.0669,-4.0666,-4.0663,-4.0661,-4.0857,-4.0866,-4.0875,0,0,0,0,0,0,0,0,0,0,0,0,0,-4.0294,-4.0136,-4.0477,-4.0504,-4.0508,-4.0664,-4.0667,-4.067,-4.067,-4.0666,-4.0663,-4.0659,-4.0854,-4.0865,-4.0876,-4.1019,0,0,-4.0911,-4.0915,0,0,0,0,0,0,0,0,-4.0284,-4.0307,-4.0498,-4.0502,-4.0507,-4.0639,-4.0616,-4.0787,-4.0671,-4.0609,-4.0662,-4.0657,-4.079,-4.0806,-4.0849,-4.1028,-4.1037,-4.0912,-4.0918,-4.0923,-4.0926,0,0,0,0,0,0,0,-4.0273,-4.0299,-4.0552,-4.05,-4.0506,-4.0509,-4.0529,-4.0648,-4.0718,-4.0614,-4.0614,-4.0636,-4.0792,-4.0838,-4.0854,-4.104,-4.0911,-4.0921,-4.0928,-4.0933,-4.1348,-4.1352,0,0,0,0,0,0,-4.0255,-4.0289,-4.0546,-4.0557,-4.0384,-4.0518,-4.054,-4.0601,-4.0716,-4.073,-4.0639,-4.0635,-4.0821,-4.0841,-4.0861,-4.1036,-4.0923,-4.0934,-4.094,-4.1343,-4.1349,-4.1353,0,0,0,0,0,0,-4.0247,-4.0278,-4.0538,-4.0423,-4.0457,-4.0528,-4.0596,-4.0606,-4.0653,-4.0735,-4.0748,-4.0673,-4.0819,-4.0845,-4.098,-4.1043,-4.0939,-4.0949,-4.1338,-4.1345,-4.1351,-4.1388,0,0,0,0,0,0,-4.0237,-4.0275,-4.0328,-4.0424,-4.0463,-4.0651,-4.06,-4.0613,-4.0672,-4.0669,-4.0771,-4.0784,-4.0818,-4.0963,-4.0991,-4.1057,-4.0958,-4.1333,-4.1341,-4.1349,-4.1381,-4.1395,-4.1406,0,0,0,0,0,-4.0225,-4.0332,-4.0331,-4.0362,-4.053,-4.0655,-4.0677,-4.0712,-4.0677,-4.0732,-4.0785,-4.0781,-4.1032,-4.0977,-4.1008,-4.1078,-4.1329,-4.1339,-4.1348,-4.1376,-4.1392,-4.1406,0,0,0,0,0,0,-4.0243,-4.0345,-4.0345,-4.0486,-4.0561,-4.0655,-4.0725,-4.0728,-4.0816,-4.081,-4.0851,-4.0875,-4.1009,-4.1058,-4.0994,-4.1224,-4.1177,-4.1193,-4.1187,-4.1203,-4.1215,-4.12,-4.0967,0,0,0,0,0,-4.0263,-4.0353,-4.0439,-4.0555,-4.0593,-4.0653,-4.0709,-4.0729,-4.081,-4.0842,-4.0905,-4.0986,-4.1083,-4.1146,-4.124,-4.1389,-4.1412,-4.1453,-4.1466,-4.1476,-4.1489,-4.1573,-4.1593,-4.1385,-4.1384,-4.1384,0,0,-4.0306,-4.0373,-4.0428,-4.0561,-4.0622,-4.0717,-4.068,-4.0782,-4.0853,-4.0858,-4.0988,-4.1038,-4.1131,-4.1274,-4.134,-4.1319,-4.1552,-4.1488,-4.1495,-4.1503,-4.1585,-4.1604,-4.1622,-4.1391,-4.139,-4.1389,0,0,-4.0432,-4.0492,-4.0595,-4.0657,-4.075,-4.0789,-4.0814,-4.0908,-4.094,-4.1072,-4.1078,-4.1165,-4.1331,-4.1398,-4.1453,-4.1608,-4.1608,-4.1637,-4.1702,-4.1783,-4.18,-4.1814,-4.187,-4.1889,-4.1651,-4.1651,-4.1651,0,-4.0474,-4.0615,-4.0649,-4.0751,-4.081,-4.0818,-4.0925,-4.0984,-4.1104,-4.1146,-4.112,-4.1329,-4.1393,-4.1551,-4.1589,-4.1634,-4.1665,-4.1625,-4.1794,-4.1809,-4.1824,-4.1877,-4.1898,-4.1654,-4.1653,-4.1653,-4.1653,0,-4.0663,-4.0761,-4.0834,-4.0947,-4.1015,-4.1119,-4.1171,-4.1236,-4.1251,-4.1294,-4.1429,-4.1506,-4.1616,-4.1656,-4.1672,-4.1818,-4.1802,-4.1785,-4.1738,-4.1846,-4.1897,-4.1918,-4.1658,-4.1657,-4.1656,-4.1655,0,0,-4.0803,-4.0934,-4.0961,-4.1012,-4.1116,-4.1194,-4.1301,-4.1406,-4.1462,-4.1545,-4.1636,-4.1778,-4.1763,-4.1826,-4.1851,-4.1922,-4.2041,-4.1897,-4.19,-4.1921,-4.2208,-4.2219,-4.2241,-4.2042,-4.2046,-4.2049,-4.22,0,-4.094,-4.1125,-4.116,-4.1322,-4.1414,-4.1425,-4.1517,-4.1593,-4.1637,-4.1723,-4.1773,-4.1872,-4.1845,-4.1884,-4.1955,-4.2011,-4.2099,-4.2001,-4.2129,-4.2133,-4.2103,-4.2268,-4.228,-4.2418,-4.222,-4.2223,-4.2226,0,-4.1123,-4.1209,-4.138,-4.1473,-4.1513,-4.1595,-4.1696,-4.1778,-4.1865,-4.1892,-4.1964,-4.1981,-4.2094,-4.2044,-4.2202,-4.2134,-4.2189,-4.2225,-4.2231,-4.2244,-4.2184,-4.2284,-4.2462,-4.2483,-4.2257,-4.2255,-4.2252,0,-4.1208,-4.1367,-4.149,-4.1534,-4.1646,-4.1704,-4.1753,-4.1836,-4.1898,-4.1988,-4.2029,-4.2132,-4.2188,-4.2268,-4.2313,-4.2272,-4.2469,-4.2421,-4.2496,-4.2495,-4.2535,-4.2532,-4.2724,-4.2572,-4.2572,-4.2572,-4.2571,0,-4.1357,-4.1461,-4.1529,-4.1605,-4.1723,-4.1764,-4.188,-4.193,-4.2004,-4.2092,-4.2109,-4.2191,-4.2246,-4.2338,-4.2375,-4.25,-4.2526,-4.2552,-4.2561,-4.255,-4.2547,-4.2586,-4.2577,-4.2577,-4.2576,-4.2575,-4.2574,0,-4.147,-4.152,-4.1655,-4.1749,-4.1776,-4.1859,-4.1941,-4.2017,-4.2061,-4.2172,-4.22,-4.2272,-4.238,-4.2434,-4.2569,-4.2594,-4.2736,-4.2739,-4.2706,-4.2709,-4.278,-4.2772,-4.3003,-4.3036,-4.2863,-4.2865,-4.2866,0,-4.1561,-4.1641,-4.1744,-4.1802,-4.1853,-4.1947,-4.2011,-4.2056,-4.2121,-4.2228,-4.2291,-4.2399,-4.2488,-4.2662,-4.2727,-4.2831,-4.2837,-4.2911,-4.2852,-4.284,-4.2838,-4.2832,-4.284,-4.292,-4.2922,-4.2923,-4.2924,0,-4.1716,-4.1737,-4.1826,-4.1925,-4.1999,-4.208,-4.2159,-4.2207,-4.2266,-4.2339,-4.2449,-4.2518,-4.2656,-4.2764,-4.2874,-4.2928,-4.2937,-4.2942,-4.2965,-4.2954,-4.2931,-4.2945,-4.2733,-4.2936,-4.2935,-4.2934,-4.2934,-4.2933,-4.1821,-4.1893,-4.1976,-4.2076,-4.214,-4.2215,-4.229,-4.2344,-4.2436,-4.2549,-4.2572,-4.2689,-4.2777,-4.2924,-4.2983,-4.3077,-4.3061,-4.3094,-4.3102,-4.3109,-4.3112,-4.2917,-4.3097,-4.3097,-4.3097,-4.3096,-4.3096,0,-4.1977,-4.2031,-4.2122,-4.2232,-4.2311,-4.2311,-4.24,-4.2467,-4.2568,-4.2649,-4.2736,-4.2864,-4.297,-4.3044,-4.3153,-4.3214,-4.3221,-4.3241,-4.3236,-4.3249,-4.3121,-4.309,-4.3233,-4.3233,-4.3233,-4.3233,-4.3233,-4.3233,-4.2067,-4.2189,-4.222,-4.2376,-4.2431,-4.2543,-4.2594,-4.2664,-4.2728,-4.2869,-4.2956,-4.3003,-4.3083,-4.3198,-4.3296,-4.3315,-4.3355,-4.3375,-4.3394,-4.3272,-4.3258,-4.3244,-4.3215,-4.3383,-4.3383,-4.3515,-4.3516,-4.3517]},{"header":{"parameterUnit":"m.s-1","parameterCategory":1,"la1":30.2991,"la2":30.254,"lo1":-89.0895,"lo2":-89.0444,"dy":0.0017,"dx":0.0017,"nx":28,"ny":28,"refTime":"2024-06-17T21:00:00:Z","depth":0,"parameterNumber":3,"parameterNumberName":"V-component_of_WINDS"},"data":[0,0,0,0,0,0,0,0,0,0,0,0,0,0,0,0,0,0,0,0,0,0,0,0,0,0,0,0,0,0,0,0,0,0,0,0,0,0,0,0,0,0,0,0,0,0,0,0,0,0,0,0,0,0,0,0,0,0,1.4429,1.4431,0,1.4555,1.4557,1.4558,1.4643,1.4644,1.4644,1.4645,1.4771,1.4774,1.4777,0,0,0,0,0,0,0,0,0,0,0,0,0,1.426,1.4262,1.4429,1.4431,1.4432,1.4555,1.4557,1.4559,1.4643,1.4644,1.4644,1.4645,1.477,1.4774,1.4777,0,0,0,0,0,0,0,0,0,0,0,0,0,1.4354,1.4263,1.4429,1.4489,1.4496,1.4555,1.4557,1.4559,1.4643,1.4644,1.4644,1.4645,1.4769,1.4773,1.4778,1.4786,0,0,1.479,1.4792,0,0,0,0,0,0,0,0,1.4349,1.436,1.4479,1.4485,1.4493,1.4584,1.4544,1.4635,1.4642,1.4587,1.4645,1.4646,1.4708,1.4718,1.4739,1.4792,1.4797,1.4791,1.4793,1.4795,1.4796,0,0,0,0,0,0,0,1.4342,1.4355,1.4479,1.448,1.4489,1.451,1.4524,1.4561,1.4641,1.4592,1.4598,1.4612,1.4712,1.4735,1.4743,1.4799,1.4791,1.4794,1.4797,1.4799,1.4866,1.4866,0,0,0,0,0,0,1.4326,1.4349,1.4475,1.4483,1.4422,1.4512,1.4528,1.4554,1.4641,1.4655,1.4611,1.4616,1.4727,1.4738,1.4748,1.4764,1.4795,1.4799,1.4802,1.4867,1.4866,1.4865,0,0,0,0,0,0,1.4322,1.4337,1.447,1.4418,1.4437,1.4514,1.4542,1.4556,1.4579,1.4656,1.467,1.462,1.4728,1.4742,1.4776,1.477,1.4801,1.4805,1.4868,1.4867,1.4866,1.4796,0,0,0,0,0,0,1.4317,1.4335,1.4339,1.4417,1.4439,1.4497,1.4542,1.4558,1.4586,1.4593,1.4668,1.4681,1.473,1.4769,1.478,1.4776,1.4808,1.4869,1.4867,1.4866,1.4799,1.4793,1.4787,0,0,0,0,0,1.4311,1.4313,1.4339,1.4353,1.4446,1.4496,1.4508,1.4566,1.4585,1.459,1.464,1.4678,1.4768,1.4772,1.4785,1.4782,1.4869,1.4868,1.4866,1.4802,1.4794,1.4787,0,0,0,0,0,0,1.4231,1.4325,1.4354,1.4382,1.4431,1.451,1.4518,1.4555,1.4599,1.4603,1.4672,1.4688,1.4716,1.4753,1.4755,1.4795,1.4824,1.4824,1.4771,1.4764,1.4758,1.4748,1.4812,0,0,0,0,0,1.4217,1.425,1.433,1.4348,1.4371,1.444,1.4464,1.4504,1.4557,1.4578,1.463,1.4679,1.4719,1.4743,1.4784,1.4805,1.4823,1.4809,1.4803,1.4798,1.4798,1.4813,1.4809,1.486,1.486,1.486,0,0,1.4188,1.4243,1.426,1.4333,1.4375,1.4409,1.4457,1.4489,1.4514,1.4582,1.4619,1.4658,1.4718,1.4746,1.4761,1.4778,1.4788,1.4796,1.4791,1.4794,1.4811,1.4806,1.4802,1.4859,1.4859,1.4859,0,0,1.4152,1.4197,1.4217,1.4259,1.4323,1.4369,1.4373,1.4448,1.4478,1.4515,1.4568,1.4598,1.4665,1.4705,1.4735,1.4715,1.4753,1.4726,1.4695,1.4709,1.4705,1.4702,1.4696,1.4693,1.4726,1.4726,1.4726,0,1.4107,1.416,1.4222,1.4252,1.4283,1.4347,1.4368,1.4406,1.4479,1.4499,1.4516,1.4602,1.4646,1.4686,1.4681,1.4702,1.471,1.4718,1.47,1.4698,1.4696,1.4691,1.4688,1.4722,1.4723,1.4723,1.4723,0,1.4102,1.4138,1.4146,1.4217,1.4249,1.4274,1.434,1.4365,1.4402,1.4446,1.4485,1.454,1.4594,1.4606,1.4643,1.4651,1.466,1.4687,1.4718,1.4686,1.4683,1.4682,1.4717,1.4718,1.472,1.472,0,0,1.4019,1.4125,1.4127,1.4161,1.4237,1.4265,1.4293,1.4347,1.4367,1.4416,1.4441,1.4497,1.4524,1.4557,1.4599,1.4611,1.4594,1.4638,1.464,1.4629,1.4608,1.4587,1.4584,1.4619,1.4619,1.4619,1.4603,0,1.3996,1.4051,1.4108,1.4143,1.4177,1.4239,1.4264,1.4313,1.4355,1.439,1.4436,1.4475,1.4507,1.4528,1.4543,1.4592,1.459,1.4594,1.4644,1.4645,1.4628,1.4582,1.456,1.4543,1.4602,1.4602,1.4602,0,1.3975,1.4022,1.4061,1.4135,1.4151,1.4172,1.4227,1.4259,1.4316,1.4346,1.4384,1.4429,1.4462,1.4487,1.4534,1.4535,1.4559,1.4586,1.4587,1.4595,1.4622,1.4589,1.4538,1.4536,1.46,1.46,1.4601,0,1.3912,1.3985,1.4018,1.4044,1.4131,1.4145,1.4181,1.4239,1.4268,1.4316,1.4335,1.4385,1.4412,1.445,1.4507,1.452,1.4548,1.4578,1.4574,1.4573,1.4578,1.4577,1.4531,1.4591,1.4591,1.4591,1.4591,0,1.388,1.3901,1.3991,1.4011,1.4037,1.4103,1.4126,1.4168,1.422,1.4249,1.4305,1.4331,1.4405,1.444,1.4485,1.4517,1.4529,1.4554,1.4566,1.455,1.4547,1.4567,1.457,1.4591,1.4591,1.4591,1.4591,0,1.3814,1.3875,1.3915,1.3994,1.4015,1.403,1.4098,1.412,1.4166,1.4203,1.4215,1.4287,1.4331,1.4392,1.4454,1.4485,1.4512,1.453,1.4493,1.45,1.4493,1.4493,1.4459,1.4459,1.4517,1.4517,1.4516,0,1.379,1.3808,1.389,1.3914,1.395,1.3987,1.4018,1.4083,1.4112,1.4179,1.4193,1.4242,1.4285,1.4353,1.441,1.4459,1.4479,1.4464,1.4487,1.447,1.448,1.4479,1.4482,1.4458,1.4457,1.4457,1.4456,0,1.3742,1.3771,1.3813,1.3866,1.3901,1.3945,1.3992,1.4008,1.4083,1.4113,1.416,1.4193,1.4258,1.4306,1.4363,1.44,1.4441,1.4448,1.445,1.4434,1.4413,1.4426,1.4479,1.4449,1.445,1.445,1.4451,1.4451,1.3697,1.3717,1.3778,1.3823,1.3865,1.3908,1.3933,1.3982,1.4023,1.4081,1.4117,1.4162,1.422,1.43,1.4336,1.4372,1.4389,1.4391,1.4392,1.4392,1.4387,1.4406,1.4383,1.4383,1.4383,1.4384,1.4384,0,1.3653,1.3695,1.3736,1.38,1.3836,1.3872,1.3926,1.3953,1.3992,1.4043,1.4084,1.4138,1.4186,1.4247,1.4299,1.4316,1.4336,1.4328,1.4327,1.4336,1.4369,1.4363,1.4311,1.4311,1.4311,1.4311,1.4311,1.4311,1.3634,1.3669,1.3706,1.3763,1.3805,1.3851,1.3879,1.3919,1.396,1.4018,1.4058,1.4098,1.4153,1.421,1.4255,1.4272,1.4288,1.4274,1.4297,1.4327,1.4333,1.4339,1.4334,1.4277,1.4277,1.4261,1.4261,1.4261]}]]